Location: Darmstadt
(49.8706°N, 8.6494°E)
Time: 07:33:09
(UTC+01:00)

NOSS 3-4 (A) - Pass Details

Date: 31 October 2020
Orbit: 882 x 1330 km, 63.4° (Epoch: 28 November)

Event Time Altitude Azimuth Distance (km) Brightness Sun altitude
Rises 19:13:38 0° 316° (NW) 3,784 7.3 -21.4°
Reaches altitude 10° 19:16:08 10° 316° (NW) 2,889 6.6 -21.8°
Maximum altitude 19:23:03 84° 230° (SW) 1,161 3.8 -22.9°
Enters shadow 19:27:39 27° 144° (SE) 2,150 4.9 -23.6°
